Wind_Speed
28 30 32 33 34 33 30 29 25 23 23 21 20 21 24 28 29 30 30 28 26 25 24 23 22 20 20 19 16 14 14 17 18 20 20 20 21 22 23 23 23 23 23 22
27 27 29 32 33 33 31 28 25 24 23 21 22 25 26 27 28 27 27 27 26 26 25 24 22 20 19 17 16 17 17 20 21 22 24 25 26 26 27 27 28 27 26 25
25 25 28 31 33 33 32 29 26 25 24 23 26 28 29 28 28 27 26 26 27 26 26 26 25 22 20 20 19 19 21 22 24 26 28 28 29 29 29 30 30 30 29 28
23 25 28 30 31 31 31 29 28 27 25 25 29 29 29 28 28 28 26 27 28 28 27 27 27 25 23 23 24 24 26 27 30 30 29 30 31 32 32 31 31 32 32 30
20 23 25 27 29 30 30 31 30 29 28 28 29 30 30 30 30 30 28 27 27 28 29 29 28 28 28 28 28 29 30 32 33 33 34 35 35 35 34 34 35 34 33 32
21 23 24 25 27 29 31 32 32 31 31 30 30 31 31 33 33 32 31 30 29 29 29 30 30 31 31 31 32 33 35 35 36 38 39 38 38 37 37 37 36 35 34 33
20 22 23 25 27 29 31 33 33 34 34 32 30 31 30 30 31 34 35 34 34 33 33 33 34 33 34 35 36 37 38 39 40 41 41 40 39 38 37 37 35 35 35 34
18 19 21 24 25 27 28 32 33 36 37 35 33 33 32 29 30 33 35 37 37 36 35 35 35 36 37 38 40 40 42 43 44 43 42 41 40 39 38 37 37 36 36 35
16 17 18 19 20 22 23 26 29 33 35 35 36 37 36 33 32 33 35 37 38 38 37 36 37 38 40 41 43 44 45 46 45 44 43 42 41 39 38 37 37 37 37 37
15 15 17 17 18 19 21 22 26 29 31 32 35 37 37 33 31 32 33 35 37 39 39 39 39 39 42 44 45 47 47 47 46 44 43 42 40 40 40 40 40 40 41 41
14 16 17 17 16 17 20 24 26 27 29 31 33 35 36 32 31 32 33 34 35 37 38 39 40 42 43 45 46 47 46 46 45 44 43 42 41 42 42 43 44 44 45 45
14 16 19 19 19 18 20 23 25 28 29 31 35 38 37 33 28 28 31 33 35 38 39 40 42 44 45 45 45 45 45 44 44 43 43 43 44 44 45 46 47 47 48 49
14 16 18 19 20 20 22 25 26 27 28 31 35 40 40 37 33 30 29 31 34 36 39 41 43 45 46 46 45 44 43 43 44 44 45 46 47 48 48 49 50 52 53 54
12 15 17 20 21 22 23 24 26 27 29 31 35 39 40 40 39 37 34 33 35 36 38 40 41 42 43 44 45 44 44 45 45 46 47 49 50 51 52 53 55 56 57 58
9 13 16 19 20 22 24 23 25 28 30 32 34 38 41 42 43 41 38 36 34 32 33 37 38 38 39 40 41 42 44 46 46 47 48 50 52 53 54 55 56 57 58 60
7 10 12 16 18 20 22 23 23 26 29 31 34 36 38 38 40 40 39 35 34 33 33 33 33 35 37 37 39 41 43 45 46 47 48 50 52 53 54 56 56 56 56 56
3 6 9 13 16 17 20 21 23 23 26 28 29 32 34 34 33 34 34 35 34 33 32 32 32 33 34 36 37 37 37 38 41 44 46 47 49 51 52 52 52 52 52 52
4 4 7 10 12 15 16 16 18 21 22 22 24 26 27 28 28 29 30 31 32 32 32 32 32 32 33 34 34 35 37 38 38 40 42 44 46 48 48 49 49 49 49 49
7 6 6 8 10 11 13 15 16 19 20 20 21 22 24 26 27 27 27 28 28 28 28 29 29 29 30 31 33 34 36 37 39 40 41 42 43 45 45 45 46 47 47 47
11 9 8 8 9 9 11 13 15 16 18 18 19 20 21 21 22 23 23 24 25 25 26 27 27 28 29 31 32 34 35 36 36 37 38 39 40 41 42 43 44 44 45 45
13 12 10 9 8 8 9 11 13 15 16 16 17 17 17 18 19 19 20 21 22 22 23 24 25 26 28 29 30 31 32 33 34 34 35 36 37 38 39 40 41 42 42 43
14 13 12 11 9 8 9 10 12 13 13 14 14 14 14 14 15 15 16 17 18 19 20 22 23 24 25 27 27 28 29 30 30 31 32 34 35 36 36 37 38 38 38 38
15 14 13 11 10 9 9 9 10 11 11 11 12 12 12 12 13 14 14 15 16 18 19 20 21 22 23 24 25 26 27 27 28 29 30 31 31 32 32 33 33 33 33 32
16 15 14 12 11 10 9 9 9 10 9 9 10 10 11 11 12 13 13 14 15 16 17 18 20 20 22 23 23 24 24 24 25 25 26 27 27 28 28 28 27 27 27 26
18 17 15 13 12 11 10 9 9 8 9 9 9 9 10 10 11 12 12 13 14 15 16 17 18 19 20 20 20 21 21 21 22 23 24 24 24 24 24 23 22 21 20 20
19 18 17 14 13 12 11 10 9 8 8 8 9 9 9 9 10 11 12 12 13 14 15 16 17 17 18 18 18 18 19 19 20 21 21 20 20 20 20 19 19 18 17 16
Wind_Direction
220 218 214 214 214 216 220 221 219 211 205 205 199 192 188 191 199 206 215 226 235 245 248 253 254 247 239 233 239 247 259 271 279 286 291 294 297 297 297 294 292 293 293 296
218 216 212 212 213 213 216 217 213 206 203 200 187 181 181 186 194 203 216 227 236 244 249 254 254 255 250 247 249 255 265 273 277 282 288 291 293 295 295 294 292 293 294 296
216 213 211 209 211 210 213 212 204 198 200 196 185 182 184 191 197 204 214 226 236 243 248 253 261 263 267 263 263 269 269 273 278 278 281 285 287 291 291 291 291 291 292 292
210 209 209 207 207 208 210 208 201 197 199 195 193 189 191 199 205 211 219 228 238 245 251 257 263 268 271 273 274 279 277 281 281 278 280 283 285 289 289 289 289 289 290 290
199 203 206 206 204 204 205 206 202 199 202 203 203 199 198 206 211 218 224 230 238 246 253 259 265 270 273 276 278 281 283 284 285 285 285 287 288 288 290 289 289 289 289 291
187 194 198 199 199 201 201 205 204 203 206 206 210 210 205 210 216 222 229 235 241 247 253 259 264 268 271 274 276 279 281 283 286 287 285 287 288 288 288 287 287 288 290 290
183 191 192 192 195 200 203 206 207 208 211 210 213 218 217 217 222 228 233 238 242 247 253 259 263 266 268 270 273 277 279 282 285 287 286 286 285 284 285 285 285 286 287 287
176 186 190 194 198 203 208 211 211 213 216 214 215 224 228 227 229 232 234 238 242 246 251 255 259 263 266 268 270 273 277 281 284 286 285 283 283 283 282 282 283 285 285 285
167 175 188 194 198 205 212 217 217 219 222 223 223 229 233 234 235 235 235 237 240 244 248 252 256 260 264 267 270 273 277 280 282 282 282 281 281 281 282 283 285 286 286 286
166 172 182 187 197 206 213 216 217 221 222 223 223 227 230 231 232 233 234 236 239 243 247 252 256 260 263 266 269 272 275 277 279 279 279 279 279 280 281 283 284 285 286 287
176 177 178 185 193 200 208 213 218 221 222 221 220 225 229 230 231 234 234 236 239 243 247 252 256 259 261 264 267 270 272 274 275 276 277 277 278 280 281 282 284 285 287 289
188 185 186 191 197 197 204 211 216 220 221 222 224 227 231 234 239 243 243 243 245 246 248 252 255 257 259 261 263 266 267 269 271 273 275 276 277 279 280 282 284 285 286 287
201 197 197 199 205 207 209 213 217 222 224 225 227 232 233 239 245 251 252 251 250 251 251 252 254 255 257 259 260 261 263 265 268 270 272 273 275 278 279 281 282 283 284 286
215 212 212 212 216 218 221 222 223 226 227 228 230 236 240 243 249 255 260 261 260 258 254 254 255 254 256 257 258 258 260 262 264 267 269 271 274 277 279 280 281 282 283 284
228 230 227 228 231 229 229 233 233 232 233 234 235 239 244 247 251 256 261 264 264 261 257 256 257 258 260 259 259 261 262 262 263 266 269 272 274 276 277 279 280 281 281 282
246 244 243 242 245 240 237 239 241 239 240 241 241 243 247 251 255 258 259 260 264 264 262 263 266 268 269 267 267 266 266 266 267 269 271 273 275 277 278 279 280 282 282 282
281 256 251 250 253 254 250 248 248 248 246 246 248 249 252 256 257 260 263 267 272 273 270 273 277 277 276 275 273 273 273 274 274 274 275 276 277 277 278 279 280 282 284 286
357 310 274 265 264 262 260 261 258 258 259 257 257 257 258 261 266 270 274 276 279 283 282 283 283 285 284 282 279 277 279 280 279 278 278 278 278 280 281 284 286 287 288 288
6 345 314 289 280 275 272 275 275 272 273 269 271 273 274 276 279 281 283 284 286 286 287 289 289 288 287 285 284 282 282 282 282 283 284 285 286 288 289 290 290 291 290 290
7 357 338 317 300 285 280 280 281 279 279 279 280 282 282 281 282 284 285 287 287 287 289 289 288 288 287 285 284 285 287 287 287 288 289 291 292 292 291 291 291 291 290 290
4 358 349 334 319 303 290 285 285 286 285 284 285 286 287 286 287 289 289 289 288 289 289 289 289 289 289 289 290 291 292 293 294 294 295 296 295 295 294 293 292 292 292 292
2 358 354 346 336 320 303 293 291 291 290 289 291 291 291 291 292 291 292 293 292 292 293 294 294 293 294 294 294 295 296 298 299 299 299 299 298 297 296 295 295 295 295 295
2 1 358 352 343 329 314 305 300 297 296 294 294 295 296 297 299 299 300 301 299 299 298 298 298 298 298 298 299 300 301 302 303 303 304 303 302 301 300 299 299 299 299 299
2 1 359 353 346 337 325 315 310 307 306 305 303 303 303 302 301 302 303 304 304 304 303 303 304 304 305 304 305 305 306 308 309 310 311 311 309 308 308 307 307 306 306 306
360 359 358 355 349 344 337 327 318 314 314 313 312 310 308 306 305 307 308 308 308 309 309 310 310 310 310 310 311 313 314 315 316 317 318 319 318 318 318 318 317 317 318 319
356 356 355 353 349 346 341 338 334 328 325 323 322 322 320 320 319 319 318 318 319 319 318 318 317 318 318 318 319 321 321 322 324 325 326 326 326 325 327 328 329 330 330 332
Height
5779 5785 5791 5797 5803 5808 5813 5819 5823 5826 5828 5830 5833 5836 5839 5844 5847 5850 5853 5855 5858 5861 5864 5866 5868 5869 5870 5872 5873 5873 5875 5876 5875 5874 5874 5874 5873 5873 5873 5872 5870 5868 5867 5865
5775 5781 5786 5791 5796 5803 5808 5814 5820 5823 5824 5827 5830 5833 5837 5840 5843 5846 5849 5851 5854 5857 5859 5862 5863 5864 5865 5867 5869 5868 5870 5872 5871 5869 5868 5867 5867 5866 5865 5864 5862 5861 5860 5859
5770 5777 5780 5786 5792 5798 5804 5811 5816 5818 5820 5824 5828 5831 5834 5836 5839 5841 5844 5847 5850 5853 5856 5858 5860 5861 5862 5863 5863 5864 5866 5865 5865 5864 5862 5861 5860 5859 5858 5857 5856 5854 5853 5852
5766 5771 5776 5781 5788 5794 5801 5807 5811 5814 5817 5820 5825 5828 5832 5833 5836 5838 5840 5843 5845 5848 5851 5853 5855 5857 5859 5859 5860 5860 5859 5859 5859 5856 5854 5853 5853 5852 5851 5850 5849 5848 5847 5845
5763 5768 5773 5779 5785 5790 5797 5802 5807 5810 5813 5817 5820 5824 5829 5831 5833 5834 5836 5839 5841 5843 5846 5849 5851 5852 5853 5854 5854 5855 5854 5853 5851 5848 5849 5848 5846 5846 5845 5843 5842 5840 5839 5838
5760 5765 5770 5776 5781 5786 5792 5797 5803 5806 5809 5814 5816 5820 5825 5827 5830 5832 5833 5835 5837 5839 5841 5842 5844 5846 5847 5847 5848 5847 5846 5845 5843 5842 5841 5840 5840 5839 5838 5836 5834 5833 5831 5830
5759 5763 5767 5772 5777 5783 5788 5794 5799 5803 5806 5810 5813 5816 5821 5823 5826 5828 5830 5831 5833 5834 5836 5837 5838 5839 5840 5840 5840 5840 5838 5837 5836 5835 5834 5833 5832 5830 5829 5828 5826 5825 5824 5822
5758 5763 5767 5770 5775 5779 5784 5790 5795 5799 5802 5806 5809 5811 5815 5819 5821 5823 5825 5826 5828 5829 5829 5830 5830 5831 5832 5833 5833 5832 5831 5830 5829 5827 5826 5825 5824 5822 5821 5820 5819 5817 5816 5814
5757 5762 5766 5769 5773 5777 5781 5785 5790 5794 5797 5802 5805 5806 5809 5812 5814 5816 5818 5819 5821 5822 5823 5823 5824 5824 5824 5824 5823 5823 5822 5821 5820 5819 5818 5816 5815 5814 5813 5811 5810 5808 5807 5805
5756 5761 5764 5768 5771 5774 5778 5781 5785 5788 5792 5796 5800 5801 5803 5806 5807 5808 5809 5810 5812 5814 5815 5815 5816 5816 5816 5815 5815 5814 5813 5812 5811 5810 5809 5808 5806 5805 5804 5802 5801 5799 5797 5795
5756 5760 5763 5765 5768 5771 5774 5777 5780 5783 5787 5791 5794 5797 5796 5798 5799 5799 5800 5801 5802 5803 5805 5806 5807 5807 5807 5807 5807 5806 5805 5804 5802 5801 5800 5799 5798 5796 5795 5793 5791 5789 5787 5785
5755 5758 5760 5762 5765 5767 5770 5772 5775 5779 5782 5785 5788 5791 5789 5791 5791 5792 5792 5792 5793 5794 5795 5796 5797 5798 5798 5798 5798 5797 5797 5796 5794 5793 5792 5790 5789 5787 5785 5783 5781 5778 5776 5773
5754 5757 5759 5761 5765 5766 5766 5768 5770 5774 5777 5779 5781 5784 5782 5783 5784 5784 5784 5784 5785 5785 5786 5786 5787 5788 5788 5788 5788 5787 5787 5787 5786 5784 5783 5781 5779 5777 5775 5772 5770 5767 5764 5761
5753 5754 5757 5759 5760 5761 5762 5764 5766 5769 5771 5773 5775 5775 5776 5777 5778 5778 5777 5776 5776 5776 5776 5776 5776 5776 5777 5777 5777 5777 5777 5776 5775 5774 5773 5771 5769 5766 5764 5761 5758 5755 5752 5748
5752 5752 5753 5755 5756 5757 5758 5760 5762 5763 5765 5767 5768 5769 5769 5770 5770 5771 5771 5770 5768 5767 5767 5767 5767 5766 5766 5766 5767 5767 5766 5766 5765 5763 5762 5760 5758 5755 5752 5749 5745 5742 5739 5735
5750 5750 5750 5751 5752 5753 5754 5756 5757 5758 5759 5760 5761 5762 5762 5762 5763 5763 5763 5762 5761 5760 5760 5758 5758 5757 5757 5756 5757 5756 5756 5755 5754 5752 5751 5748 5746 5743 5739 5736 5733 5729 5725 5721
5748 5748 5748 5747 5747 5748 5750 5750 5751 5752 5752 5754 5754 5755 5755 5754 5754 5754 5754 5753 5752 5752 5751 5750 5749 5749 5749 5748 5747 5746 5745 5743 5742 5740 5738 5736 5733 5730 5726 5723 5719 5715 5711 5707
5747 5746 5745 5744 5745 5744 5747 5745 5746 5746 5746 5747 5747 5748 5747 5747 5747 5746 5746 5745 5744 5744 5743 5742 5742 5741 5740 5739 5738 5737 5735 5733 5731 5728 5726 5723 5720 5716 5713 5709 5705 5701 5698 5693
5745 5744 5743 5742 5741 5741 5741 5741 5741 5741 5740 5740 5740 5741 5741 5740 5740 5739 5738 5738 5737 5737 5736 5735 5734 5733 5732 5730 5729 5727 5725 5723 5720 5717 5714 5711 5707 5704 5700 5696 5692 5688 5683 5679
5744 5742 5741 5740 5739 5738 5739 5737 5736 5737 5735 5735 5735 5735 5735 5734 5735 5734 5733 5732 5731 5730 5729 5728 5727 5725 5724 5722 5720 5718 5715 5713 5710 5707 5703 5699 5695 5692 5688 5683 5679 5674 5670 5665
5743 5741 5739 5737 5736 5735 5735 5733 5732 5733 5732 5730 5729 5729 5729 5729 5729 5728 5727 5726 5725 5724 5723 5721 5719 5718 5716 5714 5712 5709 5706 5703 5700 5697 5693 5689 5684 5680 5675 5671 5666 5662 5657 5652
5742 5739 5737 5735 5733 5734 5731 5730 5729 5728 5726 5725 5725 5724 5724 5724 5723 5722 5721 5720 5719 5718 5717 5715 5713 5711 5709 5707 5704 5701 5698 5694 5691 5687 5683 5679 5674 5669 5664 5659 5654 5650 5644 5639
5741 5739 5736 5734 5733 5730 5727 5726 5725 5724 5723 5722 5721 5720 5720 5719 5718 5717 5716 5715 5714 5712 5711 5709 5707 5705 5702 5700 5697 5693 5690 5687 5683 5679 5674 5669 5664 5659 5654 5649 5644 5639 5634 5629
5739 5737 5734 5731 5729 5727 5725 5723 5722 5720 5719 5718 5718 5717 5716 5715 5714 5713 5712 5710 5709 5707 5705 5703 5701 5698 5696 5693 5690 5687 5683 5679 5675 5671 5666 5661 5656 5651 5646 5641 5636 5631 5626 5622
5738 5735 5732 5729 5727 5724 5723 5721 5719 5718 5716 5715 5715 5714 5713 5712 5710 5709 5708 5706 5704 5703 5701 5698 5696 5693 5690 5687 5684 5680 5676 5673 5669 5664 5660 5654 5649 5644 5639 5634 5630 5625 5621 5616
5736 5734 5731 5728 5725 5723 5721 5718 5717 5715 5714 5713 5712 5711 5710 5708 5707 5706 5704 5702 5701 5699 5696 5694 5691 5688 5685 5682 5678 5675 5671 5668 5664 5659 5654 5649 5645 5640 5635 5631 5626 5622 5618 5613